WZZ9AH EPWA-LEPA

Flight info

Callsign WZZ9AH
Flight time N/A
Altitude 34000
Route SOXER DCT VAMPU N869 UVIVI DCT NUDRO DCT ELVOT DCT BUDEX DCT DETSA/N0456F350 DCT PIDAD DCT TALEP DCT RARQU DCT BALEN/N0445F290 UT250 RIXOT
Aircraft A21N/M-SDE3FGHIRWY/LB1

Departure

Time 2026-05-07 09:04
Airport Warsaw Chopin Airport (EPWA)

Arrival

Time N/A
Airport Palma de Mallorca Airport (LEPA)
Time Latitude Longitude Altitude Speed Heading
2026-05-07 08:37 52.17348 20.96576 366 ft 0 kts 242°
2026-05-07 08:58 52.17347 20.96573 366 ft 0 kts 242°
2026-05-07 08:58 52.17341 20.96554 366 ft 2 kts 241°
2026-05-07 08:58 52.17332 20.96528 366 ft 3 kts 241°
2026-05-07 08:58 52.17308 20.96493 366 ft 7 kts 188°
2026-05-07 08:59 52.17241 20.96532 366 ft 13 kts 153°
2026-05-07 08:59 52.17146 20.96614 366 ft 18 kts 152°
2026-05-07 08:59 52.17025 20.96718 366 ft 20 kts 152°
2026-05-07 08:59 52.16904 20.96824 366 ft 19 kts 152°
2026-05-07 09:00 52.16789 20.96925 366 ft 18 kts 152°
2026-05-07 09:00 52.16681 20.97024 366 ft 17 kts 138°
2026-05-07 09:00 52.16622 20.97195 366 ft 17 kts 114°
2026-05-07 09:00 52.16575 20.97366 366 ft 16 kts 115°
2026-05-07 09:01 52.16527 20.97535 366 ft 16 kts 115°
2026-05-07 09:01 52.16481 20.97697 366 ft 15 kts 115°
2026-05-07 09:01 52.16435 20.97860 366 ft 17 kts 115°
2026-05-07 09:01 52.16379 20.98061 366 ft 21 kts 115°
2026-05-07 09:02 52.16294 20.98246 366 ft 20 kts 141°
2026-05-07 09:02 52.16185 20.98372 366 ft 19 kts 145°
2026-05-07 09:02 52.16115 20.98352 366 ft 9 kts 268°
2026-05-07 09:02 52.16127 20.98298 366 ft 0 kts 296°
2026-05-07 09:03 52.16128 20.98293 366 ft 3 kts 296°
2026-05-07 09:03 52.16237 20.97907 366 ft 73 kts 295°
2026-05-07 09:03 52.16543 20.96825 366 ft 135 kts 295°
2026-05-07 09:03 52.17005 20.95184 376 ft 183 kts 295°
2026-05-07 09:04 52.17564 20.93213 863 ft 191 kts 295°
2026-05-07 09:04 52.18104 20.91318 1653 ft 185 kts 294°
2026-05-07 09:04 52.18432 20.89345 2351 ft 182 kts 275°
2026-05-07 09:04 52.18368 20.87191 2602 ft 198 kts 262°
2026-05-07 09:05 52.18150 20.84920 2921 ft 211 kts 262°
2026-05-07 09:05 52.18145 20.82447 3264 ft 227 kts 275°
2026-05-07 09:05 52.18436 20.79860 3669 ft 240 kts 280°
2026-05-07 09:05 52.18828 20.77143 4215 ft 248 kts 280°
2026-05-07 09:06 52.19226 20.74431 4822 ft 252 kts 279°
2026-05-07 09:06 52.19593 20.71634 5477 ft 253 kts 271°
2026-05-07 09:06 52.19480 20.68789 6015 ft 255 kts 253°
2026-05-07 09:06 52.18928 20.66031 6692 ft 256 kts 246°
2026-05-07 09:07 52.18294 20.63343 7409 ft 257 kts 246°
2026-05-07 09:07 52.17650 20.60627 8024 ft 262 kts 248°
2026-05-07 09:07 52.16994 20.57793 8512 ft 271 kts 250°
2026-05-07 09:07 52.16357 20.54941 9155 ft 273 kts 250°
2026-05-07 09:08 52.15714 20.52028 9827 ft 274 kts 250°
2026-05-07 09:08 52.15089 20.49061 10383 ft 280 kts 252°
2026-05-07 09:08 52.14496 20.45957 10653 ft 295 kts 252°
2026-05-07 09:08 52.13881 20.42708 10936 ft 309 kts 252°
2026-05-07 09:09 52.13247 20.39361 11437 ft 314 kts 252°
2026-05-07 09:09 52.12599 20.35946 12084 ft 315 kts 251°
2026-05-07 09:09 52.11954 20.32559 12694 ft 316 kts 251°
2026-05-07 09:09 52.11303 20.29146 13266 ft 319 kts 250°
2026-05-07 09:10 52.10644 20.25700 13811 ft 321 kts 250°
2026-05-07 09:10 52.09978 20.22230 14355 ft 324 kts 250°
2026-05-07 09:10 52.09299 20.18705 14883 ft 326 kts 250°
2026-05-07 09:10 52.08622 20.15204 15399 ft 329 kts 250°
2026-05-07 09:11 52.07935 20.11652 15903 ft 331 kts 250°
2026-05-07 09:11 52.07241 20.08077 16408 ft 333 kts 250°
2026-05-07 09:11 52.06543 20.04486 16893 ft 335 kts 250°
2026-05-07 09:11 52.05838 20.00870 17373 ft 337 kts 250°
2026-05-07 09:12 52.05128 19.97229 17835 ft 339 kts 250°
2026-05-07 09:12 52.04414 19.93575 18291 ft 341 kts 249°
2026-05-07 09:12 52.03660 19.89942 18729 ft 343 kts 248°
2026-05-07 09:12 52.02868 19.86287 19171 ft 344 kts 248°
2026-05-07 09:13 52.02067 19.82613 19587 ft 347 kts 248°
2026-05-07 09:13 52.01260 19.78914 20001 ft 349 kts 248°
2026-05-07 09:13 52.00458 19.75240 20402 ft 350 kts 248°
2026-05-07 09:13 51.99641 19.71490 20797 ft 352 kts 248°
2026-05-07 09:14 51.98817 19.67718 21190 ft 354 kts 248°
2026-05-07 09:14 51.97999 19.63974 21558 ft 356 kts 248°
2026-05-07 09:14 51.97168 19.60180 21938 ft 358 kts 248°
2026-05-07 09:14 51.96342 19.56410 22307 ft 359 kts 248°
2026-05-07 09:15 51.95496 19.52565 22660 ft 361 kts 248°
2026-05-07 09:15 51.94659 19.48762 22999 ft 363 kts 248°
2026-05-07 09:15 51.93808 19.44904 23341 ft 364 kts 248°
2026-05-07 09:15 51.92957 19.41050 23663 ft 366 kts 248°
2026-05-07 09:16 51.92102 19.37188 24002 ft 367 kts 248°
2026-05-07 09:16 51.91230 19.33252 24333 ft 368 kts 247°
2026-05-07 09:16 51.90370 19.29369 24649 ft 370 kts 247°
2026-05-07 09:16 51.89493 19.25437 24964 ft 371 kts 247°
2026-05-07 09:17 51.88610 19.21531 25280 ft 373 kts 246°
2026-05-07 09:17 51.87717 19.17572 25598 ft 374 kts 246°
2026-05-07 09:17 51.86826 19.13611 25902 ft 375 kts 246°
2026-05-07 09:17 51.85945 19.09643 26189 ft 377 kts 247°
2026-05-07 09:18 51.85078 19.05668 26465 ft 379 kts 247°
2026-05-07 09:18 51.84202 19.01647 26746 ft 380 kts 247°
2026-05-07 09:18 51.83322 18.97622 27031 ft 381 kts 246°
2026-05-07 09:18 51.82436 18.93590 27291 ft 382 kts 246°
2026-05-07 09:19 51.81544 18.89539 27551 ft 384 kts 246°
2026-05-07 09:19 51.80648 18.85474 27801 ft 385 kts 246°
2026-05-07 09:19 51.79747 18.81392 28050 ft 387 kts 246°
2026-05-07 09:19 51.78840 18.77300 28308 ft 388 kts 246°
2026-05-07 09:20 51.77931 18.73198 28551 ft 390 kts 246°
2026-05-07 09:20 51.77020 18.69091 28796 ft 391 kts 246°
2026-05-07 09:20 51.76096 18.64939 29033 ft 392 kts 246°
2026-05-07 09:20 51.75177 18.60816 29271 ft 393 kts 246°
2026-05-07 09:21 51.74247 18.56647 29499 ft 395 kts 246°
2026-05-07 09:21 51.73320 18.52501 29714 ft 396 kts 245°
2026-05-07 09:21 51.72381 18.48315 29926 ft 398 kts 245°
2026-05-07 09:21 51.71447 18.44158 30149 ft 399 kts 245°
2026-05-07 09:22 51.70501 18.39955 30361 ft 400 kts 245°
2026-05-07 09:22 51.69545 18.35713 30580 ft 401 kts 245°
2026-05-07 09:22 51.68587 18.31465 30808 ft 402 kts 245°
2026-05-07 09:22 51.67639 18.27253 31034 ft 402 kts 245°
2026-05-07 09:23 51.66689 18.23049 31275 ft 402 kts 245°
2026-05-07 09:23 51.65731 18.18823 31575 ft 401 kts 245°
2026-05-07 09:23 51.64782 18.14650 31884 ft 399 kts 244°
2026-05-07 09:23 51.63828 18.10468 32170 ft 398 kts 244°
2026-05-07 09:24 51.62874 18.06299 32405 ft 398 kts 244°
2026-05-07 09:24 51.61901 18.02093 32614 ft 398 kts 243°
2026-05-07 09:24 51.60804 17.98065 32822 ft 396 kts 239°
2026-05-07 09:24 51.59521 17.94183 33017 ft 394 kts 236°
2026-05-07 09:25 51.58060 17.90469 33215 ft 392 kts 232°
2026-05-07 09:25 51.56434 17.86950 33399 ft 391 kts 228°
2026-05-07 09:25 51.54660 17.83656 33570 ft 390 kts 224°
2026-05-07 09:25 51.52742 17.80594 33736 ft 390 kts 220°
2026-05-07 09:26 51.50691 17.77744 33899 ft 390 kts 218°
2026-05-07 09:26 51.48632 17.74978 33919 ft 390 kts 218°
2026-05-07 09:26 51.44465 17.69408 33934 ft 391 kts 218°
2026-05-07 09:27 51.40292 17.63859 33938 ft 391 kts 218°
2026-05-07 09:28 51.34001 17.55531 33941 ft 392 kts 218°
2026-05-07 09:28 51.29777 17.49958 33941 ft 393 kts 218°
2026-05-07 09:29 51.25578 17.44429 33942 ft 393 kts 218°
2026-05-07 09:29 51.21359 17.38894 33941 ft 394 kts 218°
2026-05-07 09:30 51.17173 17.33260 33942 ft 395 kts 220°
2026-05-07 09:30 51.13296 17.27071 33941 ft 396 kts 224°
2026-05-07 09:31 51.09517 17.20719 33941 ft 397 kts 224°
2026-05-07 09:31 51.05721 17.14365 33941 ft 397 kts 224°
2026-05-07 09:32 51.01917 17.08010 33940 ft 397 kts 224°
2026-05-07 09:32 50.98119 17.01681 33941 ft 398 kts 224°
2026-05-07 09:33 50.94304 16.95335 33941 ft 398 kts 224°
2026-05-07 09:33 50.90489 16.89004 33942 ft 398 kts 224°
2026-05-07 09:34 50.86649 16.82683 33942 ft 398 kts 224°
2026-05-07 09:34 50.82814 16.76383 33941 ft 398 kts 224°
2026-05-07 09:35 50.78978 16.70076 33941 ft 398 kts 224°
2026-05-07 09:35 50.75782 16.64824 33941 ft 398 kts 224°